STARLINK-5792 (56035 NORAD) Tracking and Keplerian Element Data

This shows tracking and keplerian element data for the satellite.

Feedback or suggestion? Click here.




ElementValue
Catalog56035
NameSTARLINK-5792
Epoch Orbit719
Epoch Day127.16667824
Epoch Year2023
RAAN292.1878
Inclination43
Eccentricity0.000144
Argument of Perigee273.2232
Mean Anonmoly173.1519
Mean Motion15.54688701
Decay Rate-0.00926147
L11 56035U 23042BB 23127.16667824 -.00926147 00000+0 -15013-1 0 9996
L22 56035 43.0000 292.1878 0001440 273.2232 173.1519 15.54688701 7194



Live tracking and technical data element details for STARLINK-5792 (NORAD 56035). STARLINK-5792 can be tracked NOW for your location showing map with azimuth and elevation plus other details from your city location.







IsCatalogInMostPopularTable: catalog: 56035, numindb: -1

Insert: records affected: 1


GetName: 56035 STARLINK-5792

Hit Count: inserted at: Sat, 03 Jun 2023 17:49:44 GMT